www.pogodaiklimat.ru

Погода и климат >> Архив погоды >> Словакия >> Моховце


ПОГОДА в Моховце

  • Прогноз погоды в Моховце
  • Монитор погоды в Моховце

АРХИВ ПОГОДЫ в Моховце

Время (UTC), дата Ветер
(напр.,м/с)
 
Видим.   Явления Облачность Т
(С)
Тd
(С)
f
(%)
Тe
(С)
Тes
(С)
Комфортность P
(гПа)
Po
(гПа)
Тmin
(С)
Tmax
(С)
R
(мм)
R24
(мм)
S
(см)
01 15.08 н/о н/о +12.0 +8.7 80 1017.9 986.6
02 15.08 н/о н/о +11.6 +8.6 82 1017.9 986.6
03 15.08 н/о н/о +10.9 +8.6 86 1017.8 986.4
04 15.08 н/о н/о +10.3 +8.4 88 1018.0 986.5
05 15.08 н/о н/о +12.6 +8.9 78 1017.9 986.7
06 15.08 нст 2 н/о н/о +14.8 +10.8 77 +15 +15 1017.8 986.8 +10.0
07 15.08 н/о н/о +17.8 +11.2 65 1017.2 986.6
08 15.08 н/о н/о +20.2 +10.6 54 1016.7 986.3
09 15.08 н/о н/о +22.3 +8.8 42 1016.2 986.0
10 15.08 н/о н/о +23.4 +8.3 38 1015.5 985.5
11 15.08 н/о н/о +23.7 +7.0 34 1015.2 985.2
12 15.08 З 2 н/о н/о +24.3 +7.5 34 +25 +25 комфорт 1014.7 984.8
13 15.08 СЗ 3 н/о н/о +23.6 +7.3 35 +24 +24 комфорт 1014.4 984.4
14 15.08 н/о н/о +24.8 +7.5 33 1014.1 984.2
15 15.08 н/о н/о +24.5 +5.8 30 1014.0 984.1
16 15.08 З 2 н/о н/о +23.8 +7.5 35 +24 +24 комфорт 1013.9 983.9
17 15.08 З 2 н/о н/о +21.8 +6.9 38 +23 +23 комфорт 1014.2 984.0
18 15.08 З 2 н/о н/о +19.6 +7.0 44 +21 +21 комфорт 1014.6 984.2 +25.4
19 15.08 штиль 0 н/о н/о +17.5 +7.8 53 +18 +18 1015.2 984.6
20 15.08 н/о н/о +16.1 +9.1 63 1015.6 984.8
21 15.08 н/о н/о +15.3 +9.0 66 1015.9 985.0
22 15.08 СВ 2 н/о н/о +15.8 +9.0 64 +16 +16 1016.0 985.2
23 15.08 н/о н/о +14.3 +10.7 79 1016.1 985.1
00 16.08 нст 2 н/о н/о +13.3 +9.9 80 +13 +13 1016.0 984.9
01 16.08 В 2 н/о н/о +13.1 +9.9 81 +12 +12 1016.0 984.9
02 16.08 ЮВ 2 н/о н/о +13.2 +10.2 82 +12 +12 1015.9 984.8
03 16.08 н/о н/о +13.3 +10.1 81 1015.7 984.6
04 16.08 н/о н/о +13.3 +10.1 81 1016.1 985.0
05 16.08 н/о н/о +14.2 +10.4 78 1016.1 985.1
06 16.08 нст 1 н/о н/о +15.3 +10.7 74 +16 +16 1016.5 985.6 +13.0
07 16.08 н/о н/о +17.0 +11.9 72 1016.5 985.8
08 16.08 н/о н/о +18.4 +11.0 62 1016.4 985.9
09 16.08 н/о н/о +20.1 +12.4 61 1016.4 986.0
10 16.08 СЗ 3 н/о н/о +22.3 +13.4 57 +25 +25 комфорт 1015.9 985.8
11 16.08 н/о н/о +23.7 +13.0 51 1015.5 985.5
12 16.08 СЗ 3 н/о н/о +22.9 +14.0 57 +26 +26 жарко 1015.4 985.4
13 16.08 СЗ 3 н/о н/о +24.4 +13.0 49 +26 +26 жарко 1015.0 985.1
14 16.08 СЗ 2 н/о н/о +23.5 +13.1 52 +26 +26 жарко 1014.5 984.5
15 16.08 СЗ 5 н/о н/о +21.6 +13.0 58 +24 +24 комфорт 1015.1 984.9
16 16.08 СЗ 3 н/о н/о +22.0 +13.6 59 +25 +25 комфорт 1015.3 985.2
17 16.08 н/о н/о +20.5 +12.5 60 1015.8 985.5
18 16.08 нст 1 н/о н/о +18.0 +13.3 74 +19 +19 1016.3 985.7 +24.5
19 16.08 н/о н/о +16.3 +12.5 78 1017.1 986.3
20 16.08 СЗ 2 н/о н/о +15.2 +12.5 84 +15 +15 1017.2 986.3
21 16.08 н/о н/о +14.3 +12.3 88 1017.3 986.3
22 16.08 С 3 н/о н/о +13.6 +12.3 92 +12 +12 1017.4 986.3
23 16.08 н/о н/о +13.0 +12.0 94 1017.3 986.2
00 17.08 нст 1 н/о н/о +12.6 +12.0 96 +13 +13 1017.1 985.9
01 17.08 н/о н/о +12.9 +12.0 94 1017.1 986.0
02 17.08 н/о н/о +12.6 +12.0 96 1017.1 985.9
03 17.08 н/о н/о +12.7 +11.8 94 1017.4 986.2
04 17.08 В 2 н/о н/о +12.8 +11.7 93 +12 +12 1017.4 986.2
05 17.08 В 3 н/о н/о +13.1 +11.8 92 +12 +12 1017.5 986.4
06 17.08 нст 1 н/о н/о +15.7 +12.8 83 +16 +16 1017.6 986.7 +12.3
07 17.08 н/о н/о +18.5 +13.4 72 1017.4 986.9
08 17.08 н/о н/о +20.8 +12.8 60 1017.1 986.8
09 17.08 ЮВ 2 н/о н/о +22.9 +12.6 52 +26 +26 жарко 1016.6 986.5
10 17.08 н/о н/о +23.7 +14.4 56 1016.5 986.5
11 17.08 н/о н/о +23.5 +11.2 46 1016.3 986.3
12 17.08 н/о н/о +24.2 +10.5 42 1015.8 985.9
13 17.08 н/о н/о +25.4 +11.2 41 1015.4 985.6
14 17.08 З 2 н/о н/о +24.9 +11.1 42 +26 +26 жарко 1015.3 985.4
15 17.08 ЮЗ 3 н/о н/о +25.7 +11.5 41 +27 +27 жарко 1014.9 985.1
16 17.08 н/о н/о +25.6 +11.0 40 1014.4 984.6
17 17.08 Ю 2 н/о н/о +23.5 +12.2 49 +25 +25 комфорт 1014.6 984.6
18 17.08 В 1 н/о н/о +21.2 +11.8 55 +23 +23 комфорт 1014.6 984.4 +26.2
19 17.08 В 3 н/о н/о +20.6 +12.1 58 +23 +23 комфорт 1015.1 984.8
20 17.08 ЮВ 2 н/о н/о +18.6 +12.8 69 +20 +20 1015.2 984.7
21 17.08 В 3 н/о н/о +18.3 +12.5 69 +19 +19 1015.1 984.6
22 17.08 ЮВ 3 н/о н/о +17.4 +12.9 75 +17 +17 1015.3 984.7
23 17.08 В 3 н/о н/о +17.5 +13.0 75 +18 +18 1015.0 984.4
00 18.08 нст 2 н/о н/о +17.5 +13.0 75 +18 +18 1015.0 984.4
01 18.08 В 3 н/о н/о +16.8 +13.3 80 +17 +17 1015.0 984.3
02 18.08 ЮВ 3 н/о н/о +16.6 +13.5 82 +16 +16 1014.9 984.2
03 18.08 В 2 н/о н/о +17.9 +13.2 74 +18 +18 1014.7 984.2
04 18.08 ЮВ 3 н/о н/о +16.9 +13.2 79 +17 +17 1014.8 984.2
05 18.08 ЮВ 2 н/о н/о +18.3 +13.4 73 +19 +19 1014.8 984.3
06 18.08 В 5 н/о н/о +18.3 +13.6 74 +18 +18 1014.4 983.9 +16.6 0.1
07 18.08 ЮВ 2 н/о н/о +19.5 +14.5 73 +22 +22 комфорт 1014.8 984.5
08 18.08 В 6 н/о н/о +21.9 +15.3 66 +25 +25 комфорт 1014.4 984.3
09 18.08 ЮВ 4 н/о н/о +23.3 +15.1 60 +27 +27 душно 1014.4 984.5
10 18.08 ЮВ 5 н/о н/о +26.2 +16.8 56 +30 +30 душно 1014.0 984.4
11 18.08 Ю 4 н/о н/о +27.5 +15.9 49 +31 +31 душно 1013.6 984.1
12 18.08 Ю 3 н/о н/о +28.7 +15.6 45 +32 +32 душно 1013.4 984.0
13 18.08 ЮЗ 3 н/о н/о +30.1 +13.8 37 +32 +32 жарко 1013.0 983.7
14 18.08 Ю 4 н/о н/о +30.8 +13.6 35 +32 +32 жарко 1012.5 983.3
15 18.08 Ю 5 н/о н/о +30.7 +14.0 36 +32 +32 жарко 1012.3 983.1
16 18.08 Ю 4 н/о н/о +30.1 +15.0 40 +32 +32 жарко 1012.2 983.0
17 18.08 Ю 3 н/о н/о +27.5 +15.2 47 +30 +30 жарко 1012.5 983.0
18 18.08 Ю 3 н/о н/о +24.9 +14.7 53 +28 +28 жарко 1013.0 983.2 +31.0
19 18.08 В 3 н/о н/о +23.9 +14.6 56 +27 +27 жарко 1013.7 983.8
20 18.08 ЮВ 3 н/о н/о +22.7 +14.3 59 +26 +26 жарко 1013.9 983.9
21 18.08 В 3 н/о н/о +22.4 +13.8 58 +26 +26 жарко 1014.2 984.1
22 18.08 В 2 н/о н/о +21.7 +14.4 63 +25 +25 комфорт 1014.3 984.2
23 18.08 н/о н/о +19.2 +15.1 77 1014.7 984.3
00 19.08 нст 2 н/о н/о +18.2 +14.9 81 +19 +19 1014.8 984.3
01 19.08 н/о н/о +17.5 +14.8 84 1015.0 984.4
02 19.08 ЮВ 2 н/о н/о +16.9 +14.6 86 +17 +17 1014.9 984.3
03 19.08 н/о н/о +16.6 +14.4 87 1015.2 984.5
04 19.08 н/о н/о +16.9 +14.6 86 1015.2 984.6
05 19.08 В 3 н/о н/о +18.3 +15.2 82 +19 +19 1015.4 984.9
06 19.08 В 5 н/о н/о +23.0 +16.1 65 +27 +27 душно 1015.3 985.3 +16.4
07 19.08 В 6 н/о н/о +24.7 +17.0 62 +28 +28 душно 1015.3 985.5
08 19.08 ЮВ 6 н/о н/о +27.1 +17.0 54 +31 +31 душно 1015.1 985.5
09 19.08 ЮВ 5 н/о н/о +28.7 +16.6 48 +32 +32 душно 1015.2 985.8
10 19.08 ЮВ 6 н/о н/о +30.3 +17.4 46 +34 +34 очень
душно
1015.1 985.8
11 19.08 Ю 7 н/о н/о +31.5 +16.7 41 +35 +35 очень
душно
1014.8 985.7
12 19.08 Ю 6 н/о н/о +31.7 +16.1 39 +35 +35 очень
душно
1015.2 986.0
13 19.08 ЮЗ 5 н/о н/о +31.3 +14.9 37 +33 +33 жарко 1015.3 986.1
14 19.08 ЮЗ 4 н/о н/о +31.3 +15.3 38 +34 +34 душно 1015.4 986.2
15 19.08 ЮЗ 4 н/о н/о +30.8 +16.1 41 +34 +34 очень
душно
1015.1 985.9
16 19.08 ЮЗ 4 н/о н/о +30.1 +15.0 40 +32 +32 жарко 1015.2 985.9
17 19.08 н/о н/о +28.3 +16.6 49 1015.3 985.8
18 19.08 нст 1 н/о н/о +25.7 +16.8 58 +29 +29 душно 1015.9 986.2 +32.3
19 19.08 н/о н/о +23.9 +16.7 64 1016.6 986.7
20 19.08 В 2 н/о н/о +24.1 +16.9 64 +28 +28 душно 1016.9 987.0
21 19.08 В 1 н/о н/о +23.3 +16.8 67 +28 +28 душно 1017.3 987.3
22 19.08 В 2 н/о н/о +22.7 +16.5 68 +27 +27 душно 1017.2 987.1
23 19.08 В 2 н/о н/о +22.2 +16.7 71 +27 +27 душно 1017.2 987.1
00 20.08 В 1 н/о н/о +20.7 +16.7 78 +25 +25 комфорт 1017.4 987.1
01 20.08 В 3 н/о н/о +21.3 +16.5 74 +25 +25 комфорт 1017.3 987.1
02 20.08 В 1 н/о н/о +19.7 +16.6 82 +23 +23 комфорт 1017.8 987.4
03 20.08 н/о н/о +20.2 +16.4 79 1018.0 987.6
04 20.08 В 3 н/о н/о +20.1 +16.4 79 +23 +23 комфорт 1018.4 988.0
05 20.08 н/о н/о +20.3 +16.4 78 1018.7 988.3
06 20.08 нст 1 н/о н/о +21.9 +16.6 72 +26 +26 душно 1018.6 988.4 +19.6
07 20.08 н/о н/о +24.5 +17.0 63 1018.7 988.8
08 20.08 В 3 н/о н/о +27.1 +17.0 54 +31 +31 душно 1018.6 988.9
09 20.08 ЮВ 3 н/о н/о +28.5 +16.4 48 +32 +32 душно 1018.2 988.7
10 20.08 н/о н/о +30.6 +17.0 44 1018.1 988.8
11 20.08 н/о н/о +30.7 +17.8 46 1018.1 988.8
12 20.08 Ю 3 н/о н/о +31.5 +18.2 45 +36 +36 очень
душно
1017.8 988.6
13 20.08 Ю 3 н/о н/о +32.6 +17.3 40 +36 +36 очень
душно
1017.3 988.2
14 20.08 Ю 4 н/о н/о +32.7 +17.4 40 +36 +36 очень
душно
1017.3 988.2
15 20.08 нст 2 н/о н/о +32.2 +16.1 38 +35 +35 очень
душно
1017.0 987.8
16 20.08 Ю 3 н/о н/о +30.5 +16.2 42 +34 +34 очень
душно
1016.8 987.5
17 20.08 Ю 2 н/о н/о +29.7 +16.2 44 +33 +33 душно 1016.7 987.3
18 20.08 В 3 н/о н/о +27.2 +16.8 53 +31 +31 душно 1016.8 987.2 +32.8
19 20.08 В 3 н/о н/о +26.0 +17.1 58 +30 +30 душно 1017.1 987.4
20 20.08 В 3 н/о н/о +24.8 +17.0 62 +29 +29 душно 1017.2 987.3
21 20.08 В 4 н/о н/о +24.4 +16.7 62 +28 +28 душно 1017.1 987.2
22 20.08 В 4 н/о н/о +23.8 +16.4 63 +27 +27 жарко 1017.2 987.2
23 20.08 ЮВ 2 н/о н/о +23.0 +16.1 65 +27 +27 душно 1017.2 987.2
00 21.08 ЮВ 3 н/о н/о +22.3 +15.9 67 +26 +26 жарко 1017.5 987.4
01 21.08 В 2 н/о н/о +21.1 +16.3 74 +24 +24 комфорт 1018.3 988.0
02 21.08 н/о н/о +19.8 +16.3 80 1018.7 988.3
03 21.08 СЗ 2 н/о н/о +19.1 +16.3 84 +21 +21 комфорт 1019.2 988.7
04 21.08 СЗ 5 н/о н/о +20.5 +17.7 84 +24 +24 комфорт 1019.9 989.5
05 21.08 СЗ 4 н/о н/о +20.2 +17.2 83 +23 +23 комфорт 1020.7 990.3
06 21.08 СЗ 4 н/о н/о +20.7 +17.1 80 +24 +24 комфорт 1021.4 991.0 +19.1
07 21.08 СЗ 5 н/о н/о +21.6 +17.0 75 +26 +26 душно 1022.0 991.7
08 21.08 СЗ 5 н/о н/о +22.8 +16.6 68 +27 +27 душно 1022.3 992.1
09 21.08 СЗ 5 н/о н/о +23.7 +16.5 64 +27 +27 жарко 1022.3 992.2
10 21.08 СЗ 4 н/о н/о +24.2 +16.5 62 +28 +28 душно 1022.1 992.0
11 21.08 С 4 н/о н/о +24.4 +16.4 61 +28 +28 душно 1022.0 991.9
12 21.08 н/о н/о +25.9 +15.3 52 1021.6 991.7
13 21.08 СЗ 5 н/о н/о +25.8 +14.3 49 +28 +28 жарко 1021.3 991.4
14 21.08 СЗ 5 н/о н/о +24.3 +14.1 53 +27 +27 жарко 1021.8 991.7
15 21.08 СЗ 5 н/о н/о +22.2 +13.8 59 +25 +25 комфорт 1021.9 991.6
16 21.08 СЗ 5 н/о н/о +21.4 +13.8 62 +24 +24 комфорт 1022.3 991.9
17 21.08 СЗ 5 н/о н/о +20.2 +13.4 65 +22 +22 комфорт 1022.3 991.8
18 21.08 С 4 н/о н/о +19.6 +13.3 67 +21 +21 комфорт 1022.5 991.9 +26.5
19 21.08 СЗ 3 н/о н/о +18.9 +13.3 70 +20 +20 1023.1 992.4
20 21.08 н/о н/о +18.1 +13.4 74 1023.6 992.8
21 21.08 н/о н/о +17.7 +13.2 75 1023.7 992.9
22 21.08 н/о н/о +17.1 +13.0 77 1023.9 993.0
23 21.08 н/о н/о +17.8 +12.9 73 1023.8 993.0
00 22.08 нст 2 н/о н/о +18.1 +13.0 72 +19 +19 1023.8 993.0
01 22.08 н/о н/о +17.8 +13.1 74 1023.8 993.0

 

Местоположение метеостанции Моховце (Словакия): широта 48.28 долгота 18.45 высота над уровнем моря 262 м.

В архиве по умолчанию представлена погода в Моховце за последнюю неделю. Архивные данные за месяц целиком и за предыдущие месяцы, начиная с января 2011 года, Вы можете получить, выбрав интересующий диапазон дат из раскрывающегося списка и нажав кнопку "Ввод!".


*Определитесь, кто Вы:
робот инопланетянин человек

Внимание! Время в таблицах - всемирное. Для получения местного времени необходимо прибавить поправку, которая равна 1 ч.

Смотрите также архив погоды в соседних городах и на ближайших метеорологических станциях:

Погода в Нитре (Словакия) (24 км)
Погода в Дудинце (Словакия) (33 км)
Погода в Жьяр-над-Гроном (Словакия) (45 км)
Погода в Гурбаново (Словакия) (49 км)
Погода в Прьевидзе (Словакия) (56 км)
Погода в Пьештяни (Словакия) (59 км)
Погода в Тате (Венгрия) (60 км)
Погода в Ясловске Богунице (Словакия) (62 км)
Погода в Слиаче (Словакия) (66 км)
Погода в Тате (Венгрия) (71 км)

Пояснения к столбцам:

Ветер - указаны скорость ветра в м/с - средняя за 10 мин, порывы в срок и между сроками (в фигурных скобках) и направление, откуда дует ветер: С - северный, СВ - северо-восточный, В - восточный, ЮВ - юго-восточный, Ю - южный, ЮЗ - юго-западный, З - западный, СЗ - северо-западный.
Видимость - горизонтальная дальность видимости в метрах или километрах. При видимости от 1 до 10 км при отсутствии осадков обычно наблюдается дымка, при ухудшении видимости до 1 км и менее - туман. В сухую погоду видимость может ухудшаться дымом, пылью или мглою.
Явления - указаны атмосферные явления, наблюдавшиеся в срок или в последний час перед сроком; фигурными скобками обозначены явления, наблюдавшиеся между сроками (за 1-3 часа до срока); квадратными скобками обозначены град или гололедные отложения с указанием их диаметра в мм.
Облачность - указаны через наклонную черту общая и нижняя облачность в баллах и высота нижней границы облаков в метрах; квадратными скобками обозначены формы облаков: Ci - перистые, Cs - перисто-слоистые, Cc - перисто-кучевые, Ac - высококучевые, As - высокослоистые, Sc - слоисто-кучевые, Ns - слоисто-дождевые, Cu - кучевые, Cb - кучево-дождевые. Подробнее классификацию облаков см. в Атласе облаков (PDF).
T - Температура воздуха - температура, измеренная на высоте 2 м над землей.
Td - Температура точки росы - температура, при понижении до которой содержащийся в воздухе водяной пар достигнет насыщения.
f - Относительная влажность воздуха - влажноcть воздуха, измеренная на высоте 2 м над землей.
Te - Эффективная температура - температура, которую ощущает одетый по сезону человек в тени. Характеристика душности погоды. При расчете учитывается влияние влажности воздуха и скорости ветра на теплоощущения человека.
Tes - Эффективная температура на солнце - температура, которую ощущает человек, с поправкой на солнечный нагрев. Характеристика знойности погоды. Зависит от высоты солнца над горизонтом, облачности и скорости ветра. Ночью, в пасмурную погоду, а также при ветре 12 м/с и более поправка равна нулю.
P - Атмосферное давление - приведенное к уровню моря атмосферное давление.
Po - Атмосферное давление - измеренное на уровне метеостанции атмосферное давление.
Tmin - Минимальная температура - минимум температуры воздуха на высоте 2 м над землей.
Tmax - Максимальная температура - максимум температуры воздуха на высоте 2 м над землей.
R - Количество осадков - Количество выпавших осадков за период времени, мм. При наведении курсора мыши на число - период времени, за который выпало указанное количество осадков.
R24 - Количество осадков - Количество выпавших осадков за 24 часа, мм.
S - Снежный покров - Высота снежного покрова, см. При наведении курсора мыши на число - состояние снежного покрова и степень покрытия местности в баллах.